Stations météo

réclame
Mon MeteoGroup
Ueckermünde, Allemagne (10193): Température de l'air & dewpoint: 20.05.2018 23:00:00 - 26.05.2018 23:00:00 (CEST)Ueckermünde, Allemagne (10193): Température de l'air 5cm & Température de l'air -5cm: 20.05.2018 23:00:00 - 26.05.2018 23:00:00 (CEST)Ueckermünde, Allemagne (10193): Température de l'air -20cm & Température de l'air -100cm: 20.05.2018 23:00:00 - 26.05.2018 23:00:00 (CEST)Ueckermünde, Allemagne (10193): Vitesse du vent & gusts: 20.05.2018 23:00:00 - 26.05.2018 23:00:00 (CEST)Ueckermünde, Allemagne (10193): Direction du vent: 20.05.2018 23:00:00 - 26.05.2018 23:00:00 (CEST)Ueckermünde, Allemagne (10193): reduced air pressure: 20.05.2018 23:00:00 - 26.05.2018 23:00:00 (CEST)Ueckermünde, Allemagne (10193): visibility: 20.05.2018 23:00:00 - 26.05.2018 23:00:00 (CEST)Ueckermünde, Allemagne (10193): Ensoleillement: 20.05.2018 23:00:00 - 26.05.2018 23:00:00 (CEST)Ueckermünde, Allemagne (10193): Quantités de précipitations: 20.05.2018 23:00:00 - 26.05.2018 23:00:00 (CEST)
Date & Time tt [°C] td [°C] tt 5cm [°C] tt -5cm [°C] tt -20cm [°C] tt -100cm [°C] ff [km/h] ff [knt] fx [km/h] fx [knt] dd ppp [hPa] vv [km] sd [min] rr [mm]
26.05.2018 23:00:00 14,9 14,6 13,8 17,8 20,9 15,2 4 2 17 9 NNE 1023,2 7 0 0,0
26.05.2018 22:00:00 15,0 14,2 14,3 19,3 21,3 15,2 9 5 26 14 NNE 1023,3 10 0 0,0
26.05.2018 21:00:00 17,5 14,8 16,8 21,9 21,5 15,2 6 3 16 9 N 1023,1 19 43 0,0
26.05.2018 20:00:00 17,9 14,0 18,7 24,3 21,5 15,2 11 6 16 9 NNE 1023,1 15 44 0,0
26.05.2018 19:00:00 17,9 13,7 19,1 25,4 21,4 15,2 11 6 19 10 NNE 1023,0 8 49 0,0
26.05.2018 18:00:00 17,8 14,3 18,3 24,7 21,4 15,2 10 6 21 11 N 1022,8 18 25 0,0
26.05.2018 17:00:00 18,2 14,7 20,0 25,7 21,1 15,1 16 9 27 15 NNE 1023,4 8 6 0,0
26.05.2018 16:00:00 19,4 15,3 22,2 27,9 20,7 15,1 14 8 26 14 NNE 1023,5 6 28 0,0
26.05.2018 15:00:00 19,1 15,0 22,3 26,1 20,1 15,1 16 9 27 14 NE 1023,6 6 35 0,0
26.05.2018 14:00:00 21,0 13,7 25,0 27,6 19,6 15,1 7 4 13 7 N 1023,3 12 50 0,0
26.05.2018 13:00:00 18,8 13,4 20,4 23,3 19,2 15,1 5 3 11 6 NNW 1023,7 17 3 0,0
26.05.2018 12:00:00 17,2 14,6 19,0 23,2 18,8 15,1 5 3 12 7 NNW 1023,9 12 4 0,0
26.05.2018 11:00:00 17,4 14,5 19,7 23,0 18,5 15,1 5 3 10 5 WSW 1023,8 17 16 0,0
26.05.2018 10:00:00 15,8 14,9 17,7 19,8 18,4 15,1 7 4 14 7 SSW 1023,7 8 9 2,2
26.05.2018 09:00:00 14,6 14,5 14,6 16,6 18,5 15,1 2 1 12 7 S 1023,6 1,3 0 2,8
26.05.2018 08:00:00 14,4 13,7 14,4 16,6 18,7 15,1 3 2 9 5 NE 1023,6 11 0 0,0
26.05.2018 07:00:00 14,2 13,6 13,7 16,0 19,0 15,1 8 5 19 10 ENE 1023,3 11 0 0,0
26.05.2018 06:00:00 13,5 13,1 12,7 15,9 19,2 15,0 8 4 15 8 NNE 1023,1 14 0 0,0
26.05.2018 05:00:00 13,3 13,1 11,7 16,1 19,6 15,0 6 4 13 7 NNE 1023,0 9 0 0,0
26.05.2018 04:00:00 14,1 13,3 12,7 16,3 19,9 15,0 8 4 13 7 N 1023,0 17 0 0,0
26.05.2018 03:00:00 14,1 13,1 11,7 16,9 20,3 15,0 5 3 18 10 NNE 1022,9 21 0 0,0
26.05.2018 02:00:00 14,8 13,2 12,7 17,4 20,7 15,0 5 3 13 7 N 1022,9 23 0 0,0
26.05.2018 01:00:00 14,0 13,1 10,9 18,2 21,0 15,0 4 2 16 9 NNE 1022,9 20 0 0,0
26.05.2018 00:00:00 14,1 12,8 12,6 19,0 21,4 15,0 6 3 19 10 NNE 1022,6 22 0 0,0
25.05.2018 23:00:00 14,4 12,9 13,6 19,6 21,9 15,0 5 3 17 9 N 1022,8 26 0 0,0
25.05.2018 22:00:00 14,3 12,6 13,5 20,7 22,3 15,0 13 7 19 10 NNE 1023,2 26 0 0,0
25.05.2018 21:00:00 14,8 12,1 14,0 22,4 22,6 15,0 10 5 22 12 NNE 1022,6 41 50 0,0
25.05.2018 20:00:00 14,7 12,2 15,1 24,4 22,8 15,0 13 7 27 14 NNE 1022,8 16 60 0,0
25.05.2018 19:00:00 15,0 11,9 15,6 26,7 22,8 15,0 14 8 29 15 NNE 1022,7 8 55 0,0
25.05.2018 18:00:00 15,8 12,5 17,6 28,4 22,5 15,0 21 11 36 19 NNE 1023,0 2,5 60 0,0
25.05.2018 17:00:00 16,9 12,0 19,4 29,2 22,2 14,9 16 9 31 17 NNE 1023,0 2,1 60 0,0
25.05.2018 16:00:00 17,1 12,2 20,7 29,6 21,8 14,9 19 10 34 19 NNE 1023,5 8 60 0,0
25.05.2018 15:00:00 16,7 11,4 20,5 28,9 21,3 14,9 21 11 34 19 NNE 1023,4 23 60 0,0
25.05.2018 14:00:00 15,7 11,3 19,2 27,2 20,9 14,9 21 12 33 18 NNE 1023,7 1,9 38 0,0
25.05.2018 13:00:00 17,0 10,8 20,7 27,1 20,4 14,9 21 11 35 19 NNE 1023,9 11 41 0,0
25.05.2018 12:00:00 16,8 9,7 21,2 26,8 19,9 14,9 23 12 34 18 NNE 1024,2 1,5 60 0,0
25.05.2018 11:00:00 17,4 10,3 22,2 25,2 19,5 14,9 20 11 30 16 NNE 1024,2 2,0 60 0,0
25.05.2018 10:00:00 16,7 9,6 20,7 23,3 19,2 14,9 19 11 28 15 NNE 1024,3 3,3 60 0,0
25.05.2018 09:00:00 17,2 9,9 20,4 21,0 19,1 14,9 14 8 24 13 NNE 1024,5 3,6 60 0,0
25.05.2018 08:00:00 16,5 10,1 19,1 18,9 19,1 14,8 13 7 27 15 NNE 1024,4 3,9 60 0,0
25.05.2018 07:00:00 16,7 9,9 17,5 17,4 19,3 14,8 14 7 24 13 ENE 1024,4 6 60 0,0
25.05.2018 06:00:00 16,1 10,1 15,7 16,7 19,6 14,8 17 9 27 15 ENE 1024,4 7 18 0,0
25.05.2018 05:00:00 16,0 11,5 14,9 16,9 20,0 14,8 16 8 29 16 ENE 1024,2 36 0 0,0
25.05.2018 04:00:00 15,9 11,0 14,5 17,4 20,3 14,8 13 7 29 16 E 1024,2 29 0 0,0
25.05.2018 03:00:00 16,6 12,2 15,4 17,8 20,7 14,8 15 8 28 15 ENE 1024,3 30 0 0,0
25.05.2018 02:00:00 16,7 11,2 15,0 18,3 21,0 14,8 10 6 22 12 E 1024,4 31 0 0,0
25.05.2018 01:00:00 17,1 12,7 15,7 19,0 21,5 14,8 13 7 27 14 E 1024,2 27 0 0,0
25.05.2018 00:00:00 17,1 12,4 15,8 19,7 21,9 14,8 13 7 32 17 E 1024,2 29 0 0,0
24.05.2018 23:00:00 17,2 12,4 16,3 20,5 22,3 14,8 18 10 31 17 ENE 1024,0 29 0 0,0
24.05.2018 22:00:00 17,1 12,1 15,9 21,8 22,8 14,7 15 8 25 13 ENE 1023,8 30 0 0,0
24.05.2018 21:00:00 16,3 12,7 15,5 23,8 23,1 14,7 13 7 27 15 NE 1023,8 18 44 0,0
24.05.2018 20:00:00 17,5 12,3 17,6 26,2 23,2 14,7 17 9 30 16 NE 1023,6 13 58 0,0
24.05.2018 19:00:00 19,1 12,1 19,9 28,3 23,1 14,7 17 9 32 17 NE 1023,6 6 60 0,0
24.05.2018 18:00:00 19,5 12,2 21,2 29,8 22,9 14,7 20 11 34 19 NE 1023,5 9 60 0,0
24.05.2018 17:00:00 19,8 12,6 22,5 30,6 22,5 14,7 21 11 37 20 NNE 1023,9 2,9 60 0,0
24.05.2018 16:00:00 20,0 11,3 23,8 31,0 22,0 14,7 20 11 41 22 NNE 1024,6 2,8 60 0,0
24.05.2018 15:00:00 19,0 11,3 22,5 30,5 21,4 14,7 28 15 43 23 NNE 1025,2 2,0 60 0,0
24.05.2018 14:00:00 20,1 11,9 23,9 30,3 20,7 14,7 24 13 34 19 NNE 1025,8 6 60 0,0
24.05.2018 13:00:00 20,2 11,4 25,0 29,4 19,9 14,7 21 11 30 16 NNE 1026,3 2,0 60 0,0
24.05.2018 12:00:00 21,5 11,4 26,2 27,6 19,3 14,7 13 7 29 16 ENE 1026,8 7 60 0,0
24.05.2018 11:00:00 20,5 12,0 24,7 25,2 18,8 14,7 14 7 24 13 NE 1027,1 7 60 0,0
24.05.2018 10:00:00 18,3 11,5 22,3 22,6 18,4 14,6 15 8 25 13 NE 1027,2 6 60 0,0
24.05.2018 09:00:00 17,8 11,3 20,4 20,0 18,3 14,6 17 9 27 14 ENE 1027,3 2,0 60 0,0
24.05.2018 08:00:00 16,2 10,9 17,6 17,9 18,4 14,6 15 8 26 14 ENE 1027,0 6 60 0,0
24.05.2018 07:00:00 15,8 10,5 16,7 16,3 18,6 14,6 11 6 18 10 E 1026,8 8 60 0,0
24.05.2018 06:00:00 14,7 10,0 14,0 15,3 18,9 14,6 9 5 19 10 E 1026,7 13 17 0,0
24.05.2018 05:00:00 13,8 9,7 9,6 15,8 19,3 14,6 6 3 21 11 E 1026,6 32 0 0,0
24.05.2018 04:00:00 15,3 10,8 13,6 16,4 19,6 14,6 12 7 22 12 E 1026,4 34 0 0,0
24.05.2018 03:00:00 15,1 11,6 13,4 16,9 20,0 14,6 11 6 21 12 E 1026,1 33 0 0,0
24.05.2018 02:00:00 15,5 10,9 14,0 17,5 20,3 14,6 14 7 26 14 E 1025,9 37 0 0,0
24.05.2018 01:00:00 16,3 11,3 15,2 18,0 20,8 14,6 16 9 29 16 ENE 1025,6 35 0 0,0
24.05.2018 00:00:00 15,8 9,6 14,5 18,6 21,2 14,5 13 7 23 13 NE 1025,6 44 0 0,0
23.05.2018 23:00:00 15,9 9,0 14,6 19,4 21,7 14,5 13 7 24 13 NE 1025,5 45 0 0,0
23.05.2018 22:00:00 16,0 9,0 14,7 20,8 22,1 14,5 13 7 23 12 NE 1025,2 50 0 0,0
23.05.2018 21:00:00 16,1 9,6 15,0 22,7 22,4 14,5 11 6 35 19 NE 1024,9 56 45 0,0
23.05.2018 20:00:00 16,5 9,7 16,4 25,0 22,6 14,5 21 12 35 19 NE 1024,5 14 60 0,0
23.05.2018 19:00:00 17,3 9,4 17,9 27,0 22,6 14,5 20 11 34 19 NE 1024,3 8 60 0,0
23.05.2018 18:00:00 17,9 9,6 19,1 28,5 22,4 14,5 21 12 36 19 NNE 1024,3 5 60 0,0
23.05.2018 17:00:00 18,8 10,1 20,9 29,2 22,0 14,5 22 12 39 21 NNE 1024,4 6 60 0,0
23.05.2018 16:00:00 18,7 10,5 22,0 30,0 21,5 14,5 24 13 38 21 NNE 1024,4 6 60 0,0
23.05.2018 15:00:00 18,8 11,0 22,8 30,0 20,9 14,5 23 12 35 19 NNE 1024,4 2,9 60 0,0
23.05.2018 14:00:00 19,1 10,8 23,8 29,6 20,2 14,5 23 13 35 19 NNE 1024,4 2,0 60 0,0
23.05.2018 13:00:00 19,0 10,2 23,7 28,6 19,5 14,5 23 12 32 18 NNE 1024,2 6 60 0,0
23.05.2018 12:00:00 19,1 9,9 24,0 27,4 18,8 14,5 17 9 24 13 NNE 1023,8 11 60 0,0
23.05.2018 11:00:00 18,7 11,3 24,8 24,9 18,3 14,5 11 6 18 10 NE 1023,6 14 60 0,0
23.05.2018 10:00:00 17,3 10,6 21,2 22,0 17,9 14,5 11 6 23 12 E 1023,5 12 60 0,0
23.05.2018 09:00:00 16,4 11,1 19,0 19,6 17,7 14,4 14 8 24 13 ENE 1023,0 6 60 0,0
23.05.2018 08:00:00 15,7 11,2 17,5 17,4 17,8 14,4 12 6 22 12 ENE 1022,5 12 60 0,0
23.05.2018 07:00:00 14,5 10,5 15,7 15,6 18,0 14,4 15 8 23 12 NE 1021,8 11 60 0,0
23.05.2018 06:00:00 14,2 9,8 13,8 14,7 18,3 14,4 12 7 21 11 NE 1021,1 14 17 0,0
23.05.2018 05:00:00 13,8 8,7 12,1 14,9 18,7 14,4 10 5 16 9 NE 1020,7 21 0 0,0
23.05.2018 04:00:00 14,3 10,0 12,3 15,4 19,1 14,4 10 5 21 11 ENE 1020,2 25 0 0,0
23.05.2018 03:00:00 14,1 9,9 12,4 16,0 19,5 14,4 9 5 22 12 NE 1019,8 26 0 0,0
23.05.2018 02:00:00 14,6 10,0 13,1 16,5 19,9 14,4 13 7 23 12 ENE 1019,5 29 0 0,0
23.05.2018 01:00:00 14,2 9,2 12,6 17,2 20,3 14,4 11 6 20 11 ENE 1019,3 27 0 0,0
23.05.2018 00:00:00 15,1 9,7 13,6 18,0 20,8 14,4 12 7 21 11 NE 1019,0 28 0 0,0
22.05.2018 23:00:00 15,2 10,5 13,6 19,1 21,3 14,4 10 6 18 10 NE 1018,7 29 0 0,0
22.05.2018 22:00:00 15,5 10,2 14,2 20,5 21,7 14,4 12 7 21 11 NE 1018,3 27 0 0,0
22.05.2018 21:00:00 16,3 10,8 15,0 22,6 22,0 14,4 12 7 27 15 ENE 1017,9 32 41 0,0
22.05.2018 20:00:00 16,6 11,0 16,5 25,1 22,1 14,4 14 8 29 16 NE 1017,3 17 60 0,0
22.05.2018 19:00:00 18,0 11,5 18,7 27,2 22,0 14,4 17 9 32 17 NNE 1016,9 13 60 0,0
22.05.2018 18:00:00 18,6 11,0 20,1 28,8 21,7 14,4 21 12 29 16 NNE 1016,8 7 60 0,0
22.05.2018 17:00:00 19,2 10,9 21,4 29,9 21,2 14,3 21 11 28 15 NNE 1016,7 9 60 0,0
22.05.2018 16:00:00 20,7 12,5 24,7 30,8 20,4 14,3 15 8 22 12 NNE 1016,5 12 60 0,0
22.05.2018 15:00:00 20,5 11,9 24,9 30,3 19,6 14,3 14 8 21 11 NNE 1016,8 12 60 0,0
22.05.2018 14:00:00 20,3 10,7 25,7 29,0 18,7 14,3 11 6 16 9 NNE 1016,8 18 60 0,0
22.05.2018 13:00:00 19,9 10,2 24,9 26,4 18,0 14,3 9 5 15 8 N 1017,1 18 43 0,0
22.05.2018 12:00:00 19,6 11,3 26,7 24,4 17,5 14,3 6 3 12 7 NNE 1017,2 21 50 0,0
22.05.2018 11:00:00 17,5 12,3 21,0 20,3 17,2 14,3 8 4 16 9 ENE 1017,7 18 13 0,0
22.05.2018 10:00:00 16,9 12,6 18,6 18,2 17,1 14,3 8 4 12 7 NE 1017,7 22 4 0,0
22.05.2018 09:00:00 14,6 11,9 15,6 15,8 17,2 14,3 0 0 3 1 N 1017,6 13 1 0,0
22.05.2018 08:00:00 12,8 9,6 13,5 14,5 17,4 14,3 2 1 4 2 SW 1017,5 16 15 0,0
22.05.2018 07:00:00 9,3 8,5 8,0 13,5 17,8 14,3 2 1 6 3 W 1017,5 15 1 0,0
22.05.2018 06:00:00 8,7 7,1 5,4 13,7 18,2 14,2 0 0 7 4 N 1017,5 19 0 0,0
22.05.2018 05:00:00 9,6 7,3 5,6 14,4 18,6 14,2 2 1 10 5 NNW 1017,7 25 0 0,0
22.05.2018 04:00:00 14,0 7,4 11,0 15,1 19,0 14,2 7 4 14 8 ESE 1017,9 36 0 0,0
22.05.2018 03:00:00 13,5 8,9 11,0 15,7 19,4 14,2 7 4 16 9 E 1018,2 31 0 0,0
22.05.2018 02:00:00 13,6 8,8 11,1 16,2 19,8 14,2 9 5 14 8 ENE 1018,5 28 0 0,0
22.05.2018 01:00:00 15,2 8,5 9,8 17,1 20,3 14,2 6 3 13 7 ESE 1018,5 28 0 0,0
22.05.2018 00:00:00 15,2 10,7 12,1 18,0 20,8 14,2 8 4 14 7 E 1018,9 35 0 0,0
21.05.2018 23:00:00 15,7 11,0 12,5 19,4 21,2 14,2 6 4 23 12 E 1019,2 31 0 0,0
21.05.2018 22:00:00 17,3 11,2 15,9 20,7 21,6 14,2 14 8 24 13 ENE 1019,3 38 0 0,0
21.05.2018 21:00:00 18,2 10,5 17,0 22,7 21,9 14,2 16 9 23 13 ENE 1019,4 50 34 0,0
21.05.2018 20:00:00 18,8 10,7 18,3 25,0 22,0 14,2 13 7 28 15 ENE 1019,5 39 60 0,0
21.05.2018 19:00:00 19,1 10,8 19,7 26,8 22,0 14,2 16 9 30 16 NE 1019,8 21 60 0,0
21.05.2018 18:00:00 18,6 9,7 20,0 28,2 21,7 14,2 21 11 32 17 NE 1020,2 11 60 0,0
21.05.2018 17:00:00 18,4 10,0 20,5 29,1 21,3 14,2 18 10 39 21 NNE 1020,9 16 60 0,0
21.05.2018 16:00:00 19,5 9,2 22,8 30,0 20,8 14,2 26 14 39 21 NNE 1021,4 14 60 0,0
21.05.2018 15:00:00 19,5 9,7 22,9 29,9 20,0 14,2 24 13 37 20 NNE 1022,2 7 60 0,0
21.05.2018 14:00:00 20,1 11,3 24,3 30,0 19,2 14,2 21 11 32 18 NE 1022,8 13 60 0,0
21.05.2018 13:00:00 21,6 12,1 26,0 28,6 18,3 14,2 16 9 29 16 NE 1023,5 16 60 0,0
21.05.2018 12:00:00 20,8 11,4 26,0 26,3 17,6 14,2 16 9 24 13 NE 1024,4 16 60 0,0
21.05.2018 11:00:00 17,6 9,9 22,0 23,3 17,0 14,1 12 6 24 13 ENE 1025,1 29 60 0,0
21.05.2018 10:00:00 16,7 9,5 20,2 21,0 16,6 14,1 17 9 24 13 ENE 1025,5 12 60 0,0
21.05.2018 09:00:00 16,5 8,2 19,4 18,1 16,5 14,1 10 6 19 11 ENE 1025,8 18 60 0,0
21.05.2018 08:00:00 14,6 7,6 16,5 15,3 16,5 14,1 10 5 18 10 E 1026,1 33 60 0,0
21.05.2018 07:00:00 13,3 8,0 13,9 13,1 16,9 14,1 9 5 15 8 E 1026,2 26 59 0,0
21.05.2018 06:00:00 6,6 5,6 3,8 12,0 17,3 14,1 4 2 8 5 ESE 1026,1 18 0 0,0
21.05.2018 05:00:00 6,4 6,1 2,6 12,5 17,7 14,1 2 1 7 4 NE 1025,9 17 0 0,0
21.05.2018 04:00:00 7,7 6,7 3,6 13,4 18,1 14,1 4 2 9 5 ESE 1026,0 26 0 0,0
21.05.2018 03:00:00 11,6 8,3 7,7 14,5 18,5 14,1 5 3 15 8 ESE 1026,1 35 0 0,0
21.05.2018 02:00:00 13,1 10,4 10,8 15,2 18,9 14,1 8 4 19 10 E 1026,0 44 0 0,0
21.05.2018 01:00:00 14,2 10,4 12,6 15,8 19,4 14,1 13 7 19 10 ENE 1026,2 48 0 0,0
21.05.2018 00:00:00 14,0 9,2 12,0 16,5 19,9 14,1 12 6 21 11 NE 1026,3 41 0 0,0
20.05.2018 23:00:00 14,6 9,2 12,9 17,6 20,3 14,1 13 7 24 13 ENE 1026,4 44 0 0,0

tt = Température de l'air
td = dewpoint
tt 5cm = Température de l'air 5cm
tt -5cm = Température de l'air -5cm
tt -20cm = Température de l'air -20cm
tt -100cm = Température de l'air -100cm
ff = Vitesse du vent
fx = gusts
dd = Direction du vent
ppp = reduced air pressure
vv = visibility
sd = Ensoleillement
rr = Quantités de précipitations

stations d'obs. à proximité